Location: Katowice
(50.2611°N, 19.0242°E)
Time: 05:41:16
(UTC+02:00)

A-11 Canister half - Pass Details

Date: 28 July 2019
Orbit: 1526 x 1683 km, 47.3° (Epoch: 23 August)

Event Time Altitude Azimuth Distance (km) Brightness Sun altitude
Rises 00:07:00 0° 280° (W) 4,897 11.9 -20.0°
Reaches altitude 10° 00:10:13 10° 278° (W) 3,891 11.3 -20.1°
Maximum altitude 00:19:56 63° 201° (SSW) 1,761 9.0 -20.3°
Drops below altitude 10° 00:29:19 10° 123° (ESE) 3,762 10.7 -20.5°
Enters shadow 00:31:17 - 121° (ESE) 4,377 11.1 -20.5°
Sets 00:32:23 0° 120° (ESE) 4,726 - -20.5°
